SCP
-0 -0 -0 -0 0 0 -0 0 0 0 0 0 0 0 -0 0 0 0 0 -0 -0 -0 -0 -0 -0 -0 0 -0 -0 -0 -0 -0 -0 -0 0 0 0 0 0 0 0 0 -0 -0 -0 -0 -0 -0 -0
-0 -0 -0 -0 0 -0 0 0 0 0 0 0 0 -0 0 0 0 0 0 -0 -0 -0 -0 -0 -0 -0 -0 -0 -0 -0 -0 -0 -0 -0 0 0 -0 -0 -0 -0 0 0 -0 0 0 0 0 0 0
0 -0 0 -0 0 -0 0 0 0 0 0 0 0 0 0 0 0 0 0 -0 -0 -0 -0 -0 -0 -0 -0 -0 -0 -0 -0 -0 -0 -0 -0 0 0 -0 -0 -0 -0 -0 0 0 0 0 0 0 0
0 0 0 0 -0 0 0 0 0 0 0 0 0 -0 0 0 0 0 0 0 0 -0 -0 -0 -0 -0 -0 -0 -0 -0 -0 -0 -0 -0 -0 0 0 0 0 0 0 -0 0 0 0 0 0 0 0
-0 -0 0 -0 0 -0 0 0 0 0 0 0 0 0 0 0 0 0 0 0 0 0 -0 -0 -0 -0 -0 -0 -0 -0 -0 -0 -0 -0 0 0 0 0 0 0 0 0 0 0 0 0 0 0 0
0 -0 0 -0 0 -0 0 0 0 0 0 0 0 -0 0 -0 -0 -0 -0 -0 0 0 -0 -0 -0 0 0 0 -0 -0 -0 -0 -0 0 0 0 0 0 0 0 0 0 0 0 0 0 0 0 0
-0 0 -0 0 0 0 0 0 0 0 0 0 0 0 0 0 -0 -0 -0 -0 -0 -0 0 -0 0 0 0 0 0 0 -0 0 -0 0 0 0 0 0 0 0 0 0 0 0 0 0 0 0 0
-0 0 0 0 0 0 0 0 0 0 0 -0 0 0 0 -0 -0 -0 -0 -0 -0 -0 -0 -0 0 0 -0 0 0 0 0 0 0 0 0 0 0 0 0 0 0 0 0 0 0 0 0 0 -0
-0 0 0 -0 0 0 0 0 0 0 0 0 0 0 0 -0 -0 -0 -0 -0 -0 -0 -0 -0 0 0 0 0 0 0 0 0 0 0 0 0 0 0 0 0 0 0 0 0 0 0 0 0 -0
-0 0 -0 0 0 0 0 0 0 0 0 0 0 0 0 -0 0 0 -0 -0 0 -0 -0 0 0 0 0 0 0 -0 -0 -0 -0 0 0 -0 0 0 0 0 0 0 0 0 0 0 0 -0 0
-0 -0 0 0 0 0 0 0 0 0 0 0 0 0 -0 0 0 0 0 0 0 -0 0 0 0 0 0 0 0 -0 -0 -0 -0 0 0 0 0 0 0 0 0 0 -0 0 0 0 -0 0 -0
-0 0 0 0 0 0 0 0 0 0 0 0 0 0 0 0 0 0 0 0 0 0 0 0 0 0 -0 0 0 0 -0 -0 -0 0 0 0 0 0 0 0 0 0 0 -0 -0 -0 -0 0 0
0 0 0 0 0 0 0 0 0 0 0 0 0 0 0 0 0 0 0 0 0 0 0 0 0 0 0 0 0 0 -0 0 0 0 0 0 0 0 0 0 -0 0 0 0 0 0 0 0 0
0 0 0 0 0 0 0 0 0 0 0 0 0 0 0 0 0 0 -0 -0 0 0 0 0 0 0 0 0 0 0 0 0 -0 0 0 -0 0 0 0 0 0 0 0 0 0 0 0 0 -0
0 0 0 0 0 0 0 0 0 0 0 0 0 0 0 0 0 0 0 0 0 0 0 0 0 0 0 0 0 0 0 0 0 0 0 0 0 0 0 0 0 0 0 0 0 0 0 0 0
-0 -0 -0 0 0 0 0 0 0 0 0 0 0 0 0 0 1 1 0 0 0 0 0 0 0 0 0 0 1 0 0 0 0 0 0 0 0 0 0 0 0 0 0 0 0 0 0 0 0
0 0 0 0 0 0 0 0 0 0 0 0 0 0 1 1 1 2 1 0 0 0 0 0 0 0 0 0 1 0 0 0 0 0 0 1 0 0 1 0 0 1 0 0 0 0 0 0 0
0 0 0 0 0 -0 0 0 0 0 0 0 0 0 1 0 0 0 1 1 0 0 0 0 1 1 1 1 1 0 0 0 0 0 0 1 0 0 1 0 1 1 0 0 0 1 0 0 0
0 0 0 0 0 -0 0 0 0 0 0 0 0 0 0 0 0 0 0 1 2 1 1 1 0 1 1 1 1 1 1 0 0 0 1 1 1 0 1 0 1 2 1 0 2 1 2 1 1
0 -0 0 0 0 0 0 0 0 0 0 0 0 0 0 0 0 0 0 0 1 1 2 2 1 1 1 1 1 1 1 1 1 0 1 1 1 1 1 1 1 2 1 2 3 3 1 1 1
0 0 0 0 0 0 0 0 0 0 0 0 0 0 0 0 0 0 0 0 1 1 2 2 1 1 1 0 1 1 1 2 1 2 3 3 2 2 2 3 2 5 3 1 3 3 2 1 2
0 0 0 0 0 0 -0 -0 0 0 0 0 0 0 0 0 0 0 0 0 0 0 1 2 2 1 1 1 1 1 1 2 2 2 2 3 3 3 2 3 3 5 2 2 3 3 3 3 2
0 0 0 0 0 0 0 0 0 0 0 0 0 0 0 0 0 0 0 0 0 0 0 0 0 0 0 1 1 1 1 4 1 2 2 1 1 1 1 2 3 4 3 3 4 3 3 3 3
0 -0 -0 0 0 0 0 0 0 0 0 0 0 0 0 0 0 0 0 0 0 0 0 0 0 0 0 0 0 0 0 1 0 0 0 1 1 2 1 1 2 1 1 2 1 2 3 3 3
0 -0 0 0 -0 0 0 0 0 0 0 0 0 0 0 0 0 0 0 0 0 0 0 0 0 0 0 0 0 0 0 0 1 1 1 2 2 1 0 0 0 0 0 0 0 0 1 2 1
0 0 0 -0 0 0 0 0 0 0 0 0 0 0 0 0 0 0 0 0 0 0 0 0 0 0 0 0 0 0 0 0 0 0 0 0 0 0 0 0 0 0 0 0 0 0 0 0 0
0 0 0 0 0 0 0 0 0 0 0 0 0 0 0 0 0 0 0 0 0 0 0 0 0 0 0 0 0 0 0 0 0 0 0 0 0 0 0 0 0 0 0 0 0 0 0 0 0
0 0 0 0 0 0 0 0 0 0 0 0 0 0 0 0 0 0 -0 -0 -0 0 0 0 0 0 0 0 0 0 0 0 0 0 0 0 0 0 0 0 0 0 0 0 0 0 0 0 0
0 0 0 0 0 0 0 0 0 0 0 0 0 0 0 0 0 0 0 0 0 0 0 0 0 0 0 0 0 0 0 0 0 0 0 0 0 0 0 0 0 0 0 0 0 0 0 0 0
0 0 0 0 0 0 0 0 0 0 0 0 0 0 0 0 0 0 0 0 0 0 0 0 0 0 0 0 0 0 0 0 0 0 0 0 0 0 0 0 0 0 0 0 0 0 0 0 0
Wind_Speed_500mb
25 17 7 23 16 19 18 5 14 5 15 15 11 7 23 15 26 10 24 24 35 39 46 45 42 42 44 42 45 43 40 33 28 27 33 34 33 32 31 31 31 32 31 32 33 32 32 32 33
25 20 21 31 24 28 15 13 11 10 23 7 7 2 4 23 15 21 24 33 40 41 46 47 44 42 44 45 45 43 39 34 28 33 37 36 34 32 31 30 30 29 29 29 26 25 23 24 26
33 27 32 26 27 32 11 16 9 6 11 8 4 9 12 22 9 16 11 43 43 40 43 46 46 44 44 44 45 43 39 34 33 39 38 35 32 30 28 27 26 26 27 28 26 26 26 25 25
26 31 31 26 38 31 13 15 13 12 8 7 3 8 8 11 9 11 29 41 40 38 39 45 45 43 43 44 45 44 40 36 41 42 37 34 31 29 27 26 25 26 29 27 25 25 24 23 22
38 35 26 33 40 43 19 17 17 12 17 8 5 3 9 9 11 18 37 41 37 37 37 44 44 44 43 44 45 45 41 42 44 41 37 33 30 29 26 25 25 27 29 28 25 22 19 18 18
35 43 29 33 42 31 18 17 19 12 7 3 8 14 17 19 20 27 36 40 35 38 36 43 46 44 43 42 44 46 46 47 46 40 36 33 31 27 25 22 23 26 27 26 24 20 17 15 15
41 27 36 41 35 26 19 20 24 21 21 21 11 16 23 21 24 34 40 38 38 38 37 42 46 47 44 43 44 47 50 50 46 41 37 33 30 27 24 21 20 24 26 26 23 18 14 14 12
46 29 42 36 33 30 5 23 12 15 12 16 6 2 16 29 31 35 38 39 40 41 38 41 43 44 42 46 47 49 51 49 44 40 36 33 29 26 21 18 19 22 22 21 19 17 15 13 13
36 28 31 37 40 20 14 17 21 18 16 14 12 9 12 21 26 28 33 37 40 41 41 41 42 41 41 38 48 52 51 47 42 39 37 32 25 23 20 21 20 21 21 19 17 15 13 13 12
30 27 38 27 16 13 18 14 16 8 17 20 10 10 12 23 23 28 33 37 39 41 44 41 43 43 42 38 41 45 46 43 39 36 36 29 23 19 20 22 20 21 20 18 17 15 14 14 11
38 35 30 17 13 19 26 25 13 17 14 23 19 24 28 25 28 26 33 38 40 43 45 43 45 46 45 42 39 41 38 34 33 32 32 29 25 26 25 20 23 21 21 16 17 17 19 15 30
36 35 33 37 17 26 24 25 24 20 22 24 28 24 9 19 28 25 30 35 42 45 45 44 45 46 47 42 41 44 42 39 36 34 32 31 29 27 29 21 19 20 21 21 17 15 14 10 12
28 29 28 24 24 20 20 24 18 17 15 15 20 31 18 24 24 23 25 33 36 45 48 47 47 47 47 44 41 43 45 44 39 37 37 33 32 28 28 26 25 22 23 25 21 22 16 16 20
16 28 28 22 24 21 21 21 11 16 9 11 13 18 12 16 25 22 27 34 39 42 45 46 48 49 51 50 42 45 45 45 45 41 42 42 34 33 31 30 29 27 27 25 25 23 19 22 22
20 23 25 26 27 19 19 23 19 10 6 9 3 9 6 8 14 24 26 30 38 40 41 44 47 47 50 48 45 47 46 46 47 45 44 43 42 38 37 32 30 30 29 30 27 25 25 26 22
26 27 27 27 4 19 13 13 15 5 3 16 9 14 21 14 9 16 24 25 34 39 43 44 47 50 50 51 51 47 47 47 45 47 44 46 46 42 45 35 34 33 32 33 31 28 29 28 27
19 28 23 22 8 11 26 19 10 7 11 13 17 16 24 29 23 13 11 19 29 38 40 46 50 54 54 55 51 52 50 51 50 47 47 47 48 47 43 40 37 38 36 35 35 33 33 30 28
20 17 11 16 20 20 27 22 14 11 17 19 18 17 25 20 20 15 9 12 31 38 41 44 51 61 58 57 57 52 51 52 52 52 50 49 47 49 51 43 43 42 43 40 39 39 37 35 30
14 14 16 8 10 22 11 18 13 11 17 21 21 22 20 18 13 12 13 11 8 33 40 47 49 59 68 66 62 62 62 54 52 52 53 53 49 46 52 45 46 47 49 46 47 41 38 38 32
18 23 25 9 6 16 21 21 15 15 18 19 23 23 22 21 20 19 18 9 22 17 25 44 49 53 65 61 66 62 60 59 54 50 53 53 49 50 53 55 50 56 50 50 50 51 44 43 40
22 17 28 20 10 19 27 26 29 24 27 25 24 24 23 24 25 26 28 26 10 6 13 28 44 47 58 61 61 60 55 57 55 57 52 54 54 52 56 56 62 53 66 52 62 58 56 45 46
24 17 18 21 25 26 39 27 42 36 23 22 22 20 23 23 26 29 29 26 13 7 2 5 23 38 46 56 62 63 65 58 59 52 50 49 60 62 54 56 56 69 56 64 61 67 62 65 54
28 19 22 25 27 30 34 19 24 37 31 23 20 19 21 22 26 31 31 26 13 5 1 14 19 18 25 40 54 61 66 58 46 49 43 46 60 66 67 67 67 64 72 58 62 64 70 58 66
21 28 28 27 26 26 35 32 24 34 32 28 19 17 15 18 20 27 27 27 24 11 3 7 11 17 25 27 34 42 40 31 38 43 48 43 61 60 62 58 54 63 68 71 71 62 68 75 56
23 27 23 23 25 29 6 17 20 23 18 22 17 13 14 15 18 17 22 24 26 26 24 18 8 12 21 29 38 41 39 41 47 53 63 60 70 67 66 71 75 82 86 90 85 91 79 77 76
17 14 20 33 25 2 16 17 13 28 25 19 15 8 12 14 15 14 14 15 14 16 20 21 20 16 13 11 13 18 21 32 42 48 56 76 60 81 85 81 82 77 85 94 95 91 90 83 66
8 19 12 18 32 26 32 16 19 31 24 16 9 2 11 10 11 10 9 8 9 11 14 18 19 19 17 16 15 14 15 14 17 28 39 47 55 62 67 69 78 80 88 86 86 98 97 85 77
21 19 14 20 23 34 27 31 7 32 25 20 12 2 7 6 9 10 6 4 4 6 11 15 17 13 14 12 14 16 17 18 19 17 18 25 34 41 49 57 63 69 62 76 77 88 95 86 74
19 22 17 17 20 24 25 8 24 24 18 15 7 3 2 2 4 5 5 4 6 6 6 12 10 13 12 15 20 20 22 23 20 19 20 24 23 30 36 45 51 56 62 69 69 72 70 69 65
21 28 25 18 26 16 20 22 11 14 13 14 12 12 6 3 3 1 0 3 5 6 6 9 8 11 15 19 22 24 24 24 21 14 17 20 19 21 22 27 29 32 35 41 45 54 52 50 45
Wind_Direction_500mb
218 218 216 248 248 231 223 192 335 274 190 59 77 349 10 16 11 63 142 143 154 159 162 164 162 163 165 166 168 165 165 161 157 152 148 143 144 139 134 130 127 126 120 119 115 110 104 97 91
202 205 231 265 254 268 231 129 194 25 51 61 95 207 171 71 68 122 140 151 155 159 162 165 166 165 168 170 172 170 167 165 160 154 149 144 143 140 138 134 132 131 127 129 124 118 111 101 93
185 213 248 239 240 257 290 144 30 144 149 138 163 331 38 72 87 146 166 155 157 157 160 169 166 167 170 170 173 174 171 168 162 156 149 145 143 142 140 140 142 141 135 130 122 115 110 102 98
195 215 242 261 253 238 295 136 99 184 151 133 350 200 106 62 110 155 155 156 158 158 161 168 167 166 169 170 173 177 175 170 166 161 153 149 147 143 138 138 137 140 141 136 128 120 113 105 98
207 231 233 232 241 267 171 121 245 290 129 187 248 272 108 105 119 150 155 157 158 160 168 172 170 167 170 172 172 176 176 171 168 163 158 156 152 149 144 142 140 141 144 141 136 129 118 107 103
208 227 239 235 240 235 219 217 203 190 210 214 217 262 92 122 134 149 156 159 160 162 170 173 173 171 171 174 176 176 174 171 170 168 164 162 160 158 152 150 146 147 149 148 146 139 132 122 114
226 214 241 250 260 226 217 209 249 205 216 185 244 309 117 129 147 153 157 163 164 167 172 172 173 175 176 176 177 176 173 172 173 172 171 169 168 166 163 161 156 154 154 155 155 154 150 142 131
229 257 250 245 262 258 228 199 257 251 286 75 116 188 93 143 151 157 164 166 169 171 176 173 172 175 180 178 177 177 175 175 177 177 177 177 177 175 173 173 173 167 166 169 167 167 165 160 143
228 252 247 247 252 247 261 205 219 217 282 191 208 284 106 155 156 166 173 176 176 176 178 177 176 178 177 181 180 178 180 182 183 184 184 184 179 185 187 186 194 184 182 181 176 170 167 158 143
228 230 246 259 329 308 274 257 233 184 248 253 199 214 148 172 176 184 188 187 190 184 182 181 179 182 179 183 187 181 187 188 187 191 190 183 181 190 197 220 203 199 197 188 179 171 162 164 160
222 251 256 275 271 285 286 281 250 242 221 256 262 275 167 176 194 204 206 199 194 191 186 186 182 184 181 185 189 185 192 192 195 197 203 183 194 203 191 223 212 206 203 190 191 172 174 203 194
236 253 265 279 256 253 251 261 260 252 257 270 277 284 195 189 203 205 212 207 193 191 189 188 188 187 186 188 193 189 191 196 200 202 206 195 200 209 202 210 205 205 216 196 194 203 223 189 222
231 254 258 248 249 244 245 245 257 245 31 337 303 264 234 202 213 202 208 203 195 191 191 191 190 190 190 192 194 196 195 199 204 204 213 202 209 211 206 207 208 208 207 199 207 211 196 199 216
202 236 259 233 228 223 239 241 235 105 346 308 291 237 209 224 199 198 196 192 198 197 196 195 196 194 190 194 197 199 201 203 204 208 213 209 213 214 208 208 208 214 213 214 208 218 204 209 218
260 253 238 239 228 232 236 247 219 15 355 31 331 101 169 122 178 190 183 197 199 200 200 199 199 201 197 201 198 201 205 207 209 211 209 213 212 213 206 213 218 215 218 217 212 208 206 215 216
240 234 251 197 171 227 205 183 63 41 73 101 50 121 124 105 104 132 176 203 204 204 203 204 204 207 206 203 203 205 208 211 213 214 214 217 215 205 219 213 221 220 219 219 215 210 216 216 216
196 243 216 145 223 142 212 145 81 71 83 85 89 89 103 92 61 70 183 207 210 207 209 207 207 206 210 206 209 208 210 212 215 215 217 220 217 214 212 215 220 219 221 221 218 218 219 218 217
176 221 179 272 147 212 202 131 106 100 110 95 92 100 65 56 29 354 351 164 214 214 218 218 211 207 209 209 207 215 215 217 215 217 217 220 221 218 224 215 217 224 222 223 222 222 222 222 216
10 304 318 113 91 274 324 78 110 125 119 102 94 82 81 73 56 22 326 308 261 214 221 220 217 214 205 212 210 211 216 219 220 220 221 219 221 221 222 222 221 226 223 227 226 217 217 216 212
289 277 270 106 216 268 165 158 151 138 100 97 104 92 84 73 58 43 18 332 224 223 222 228 224 219 213 212 213 216 214 217 220 223 225 222 221 222 222 223 220 229 230 232 222 215 215 218 217
278 288 290 302 178 237 272 184 164 143 127 112 103 100 84 70 56 44 30 27 83 251 290 232 233 229 222 213 219 217 217 217 218 218 220 223 222 224 221 229 225 229 235 229 231 225 217 220 221
305 321 327 285 274 262 212 257 164 154 140 125 114 94 88 69 54 45 37 39 83 144 279 203 236 239 237 228 222 220 216 213 216 219 220 212 214 216 223 228 233 225 233 225 241 236 229 223 224
286 343 286 275 265 265 247 237 177 158 160 135 113 98 89 74 53 41 39 37 67 74 198 250 260 253 240 234 237 241 219 214 215 216 227 236 240 240 241 232 230 233 235 235 230 240 239 231 225
303 274 256 245 246 244 240 249 199 180 166 133 122 97 76 73 63 47 45 40 47 60 182 221 262 274 264 262 257 262 266 255 245 247 237 235 248 245 252 238 234 230 232 232 227 231 234 237 235
246 261 260 224 217 234 168 183 73 107 100 116 126 102 71 46 61 53 48 53 45 40 41 41 19 275 274 274 275 271 261 258 259 249 253 252 244 244 240 240 238 238 234 235 236 232 230 236 234
293 306 289 305 296 45 144 231 114 116 122 133 128 96 61 41 53 70 67 57 60 55 43 33 26 16 13 352 321 316 302 271 264 260 263 253 263 253 256 256 253 250 251 246 243 238 234 232 228
195 248 357 301 277 268 284 95 137 146 152 159 139 115 60 56 55 80 90 90 52 35 23 10 1 354 355 358 351 321 301 285 270 262 258 258 252 249 246 251 259 259 250 245 250 246 239 229 221
257 342 250 218 263 269 261 259 139 160 171 172 197 142 87 66 71 81 76 107 43 8 357 344 341 340 344 345 344 341 334 319 304 291 272 262 268 264 265 262 252 246 252 250 247 236 232 224 217
189 225 227 292 296 297 290 306 84 147 166 150 171 157 136 88 44 46 45 23 19 8 354 328 325 312 318 323 324 322 315 312 310 306 292 282 272 266 260 259 258 264 255 257 248 235 229 222 222
276 279 288 260 262 236 273 285 89 117 146 168 201 183 201 273 284 28 33 357 339 353 343 336 339 317 305 298 300 300 296 294 298 290 279 281 275 261 256 250 251 250 245 240 233 223 211 197 181
Wind_Speed_850mb
25 17 7 23 16 19 18 5 14 5 15 15 11 7 23 15 26 10 24 24 35 39 46 45 42 42 44 42 45 43 40 33 28 27 33 34 33 32 31 31 31 32 31 32 33 32 32 32 33
25 20 21 31 24 28 15 13 11 10 23 7 7 2 4 23 15 21 24 33 40 41 46 47 44 42 44 45 45 43 39 34 28 33 37 36 34 32 31 30 30 29 29 29 26 25 23 24 26
33 27 32 26 27 32 11 16 9 6 11 8 4 9 12 22 9 16 11 43 43 40 43 46 46 44 44 44 45 43 39 34 33 39 38 35 32 30 28 27 26 26 27 28 26 26 26 25 25
26 31 31 26 38 31 13 15 13 12 8 7 3 8 8 11 9 11 29 41 40 38 39 45 45 43 43 44 45 44 40 36 41 42 37 34 31 29 27 26 25 26 29 27 25 25 24 23 22
38 35 26 33 40 43 19 17 17 12 17 8 5 3 9 9 11 18 37 41 37 37 37 44 44 44 43 44 45 45 41 42 44 41 37 33 30 29 26 25 25 27 29 28 25 22 19 18 18
35 43 29 33 42 31 18 17 19 12 7 3 8 14 17 19 20 27 36 40 35 38 36 43 46 44 43 42 44 46 46 47 46 40 36 33 31 27 25 22 23 26 27 26 24 20 17 15 15
41 27 36 41 35 26 19 20 24 21 21 21 11 16 23 21 24 34 40 38 38 38 37 42 46 47 44 43 44 47 50 50 46 41 37 33 30 27 24 21 20 24 26 26 23 18 14 14 12
46 29 42 36 33 30 5 23 12 15 12 16 6 2 16 29 31 35 38 39 40 41 38 41 43 44 42 46 47 49 51 49 44 40 36 33 29 26 21 18 19 22 22 21 19 17 15 13 13
36 28 31 37 40 20 14 17 21 18 16 14 12 9 12 21 26 28 33 37 40 41 41 41 42 41 41 38 48 52 51 47 42 39 37 32 25 23 20 21 20 21 21 19 17 15 13 13 12
30 27 38 27 16 13 18 14 16 8 17 20 10 10 12 23 23 28 33 37 39 41 44 41 43 43 42 38 41 45 46 43 39 36 36 29 23 19 20 22 20 21 20 18 17 15 14 14 11
38 35 30 17 13 19 26 25 13 17 14 23 19 24 28 25 28 26 33 38 40 43 45 43 45 46 45 42 39 41 38 34 33 32 32 29 25 26 25 20 23 21 21 16 17 17 19 15 30
36 35 33 37 17 26 24 25 24 20 22 24 28 24 9 19 28 25 30 35 42 45 45 44 45 46 47 42 41 44 42 39 36 34 32 31 29 27 29 21 19 20 21 21 17 15 14 10 12
28 29 28 24 24 20 20 24 18 17 15 15 20 31 18 24 24 23 25 33 36 45 48 47 47 47 47 44 41 43 45 44 39 37 37 33 32 28 28 26 25 22 23 25 21 22 16 16 20
16 28 28 22 24 21 21 21 11 16 9 11 13 18 12 16 25 22 27 34 39 42 45 46 48 49 51 50 42 45 45 45 45 41 42 42 34 33 31 30 29 27 27 25 25 23 19 22 22
20 23 25 26 27 19 19 23 19 10 6 9 3 9 6 8 14 24 26 30 38 40 41 44 47 47 50 48 45 47 46 46 47 45 44 43 42 38 37 32 30 30 29 30 27 25 25 26 22
26 27 27 27 4 19 13 13 15 5 3 16 9 14 21 14 9 16 24 25 34 39 43 44 47 50 50 51 51 47 47 47 45 47 44 46 46 42 45 35 34 33 32 33 31 28 29 28 27
19 28 23 22 8 11 26 19 10 7 11 13 17 16 24 29 23 13 11 19 29 38 40 46 50 54 54 55 51 52 50 51 50 47 47 47 48 47 43 40 37 38 36 35 35 33 33 30 28
20 17 11 16 20 20 27 22 14 11 17 19 18 17 25 20 20 15 9 12 31 38 41 44 51 61 58 57 57 52 51 52 52 52 50 49 47 49 51 43 43 42 43 40 39 39 37 35 30
14 14 16 8 10 22 11 18 13 11 17 21 21 22 20 18 13 12 13 11 8 33 40 47 49 59 68 66 62 62 62 54 52 52 53 53 49 46 52 45 46 47 49 46 47 41 38 38 32
18 23 25 9 6 16 21 21 15 15 18 19 23 23 22 21 20 19 18 9 22 17 25 44 49 53 65 61 66 62 60 59 54 50 53 53 49 50 53 55 50 56 50 50 50 51 44 43 40
22 17 28 20 10 19 27 26 29 24 27 25 24 24 23 24 25 26 28 26 10 6 13 28 44 47 58 61 61 60 55 57 55 57 52 54 54 52 56 56 62 53 66 52 62 58 56 45 46
24 17 18 21 25 26 39 27 42 36 23 22 22 20 23 23 26 29 29 26 13 7 2 5 23 38 46 56 62 63 65 58 59 52 50 49 60 62 54 56 56 69 56 64 61 67 62 65 54
28 19 22 25 27 30 34 19 24 37 31 23 20 19 21 22 26 31 31 26 13 5 1 14 19 18 25 40 54 61 66 58 46 49 43 46 60 66 67 67 67 64 72 58 62 64 70 58 66
21 28 28 27 26 26 35 32 24 34 32 28 19 17 15 18 20 27 27 27 24 11 3 7 11 17 25 27 34 42 40 31 38 43 48 43 61 60 62 58 54 63 68 71 71 62 68 75 56
23 27 23 23 25 29 6 17 20 23 18 22 17 13 14 15 18 17 22 24 26 26 24 18 8 12 21 29 38 41 39 41 47 53 63 60 70 67 66 71 75 82 86 90 85 91 79 77 76
17 14 20 33 25 2 16 17 13 28 25 19 15 8 12 14 15 14 14 15 14 16 20 21 20 16 13 11 13 18 21 32 42 48 56 76 60 81 85 81 82 77 85 94 95 91 90 83 66
8 19 12 18 32 26 32 16 19 31 24 16 9 2 11 10 11 10 9 8 9 11 14 18 19 19 17 16 15 14 15 14 17 28 39 47 55 62 67 69 78 80 88 86 86 98 97 85 77
21 19 14 20 23 34 27 31 7 32 25 20 12 2 7 6 9 10 6 4 4 6 11 15 17 13 14 12 14 16 17 18 19 17 18 25 34 41 49 57 63 69 62 76 77 88 95 86 74
19 22 17 17 20 24 25 8 24 24 18 15 7 3 2 2 4 5 5 4 6 6 6 12 10 13 12 15 20 20 22 23 20 19 20 24 23 30 36 45 51 56 62 69 69 72 70 69 65
21 28 25 18 26 16 20 22 11 14 13 14 12 12 6 3 3 1 0 3 5 6 6 9 8 11 15 19 22 24 24 24 21 14 17 20 19 21 22 27 29 32 35 41 45 54 52 50 45
Wind_Direction_850mb
218 218 216 248 248 231 223 192 335 274 190 59 77 349 10 16 11 63 142 143 154 159 162 164 162 163 165 166 168 165 165 161 157 152 148 143 144 139 134 130 127 126 120 119 115 110 104 97 91
202 205 231 265 254 268 231 129 194 25 51 61 95 207 171 71 68 122 140 151 155 159 162 165 166 165 168 170 172 170 167 165 160 154 149 144 143 140 138 134 132 131 127 129 124 118 111 101 93
185 213 248 239 240 257 290 144 30 144 149 138 163 331 38 72 87 146 166 155 157 157 160 169 166 167 170 170 173 174 171 168 162 156 149 145 143 142 140 140 142 141 135 130 122 115 110 102 98
195 215 242 261 253 238 295 136 99 184 151 133 350 200 106 62 110 155 155 156 158 158 161 168 167 166 169 170 173 177 175 170 166 161 153 149 147 143 138 138 137 140 141 136 128 120 113 105 98
207 231 233 232 241 267 171 121 245 290 129 187 248 272 108 105 119 150 155 157 158 160 168 172 170 167 170 172 172 176 176 171 168 163 158 156 152 149 144 142 140 141 144 141 136 129 118 107 103
208 227 239 235 240 235 219 217 203 190 210 214 217 262 92 122 134 149 156 159 160 162 170 173 173 171 171 174 176 176 174 171 170 168 164 162 160 158 152 150 146 147 149 148 146 139 132 122 114
226 214 241 250 260 226 217 209 249 205 216 185 244 309 117 129 147 153 157 163 164 167 172 172 173 175 176 176 177 176 173 172 173 172 171 169 168 166 163 161 156 154 154 155 155 154 150 142 131
229 257 250 245 262 258 228 199 257 251 286 75 116 188 93 143 151 157 164 166 169 171 176 173 172 175 180 178 177 177 175 175 177 177 177 177 177 175 173 173 173 167 166 169 167 167 165 160 143
228 252 247 247 252 247 261 205 219 217 282 191 208 284 106 155 156 166 173 176 176 176 178 177 176 178 177 181 180 178 180 182 183 184 184 184 179 185 187 186 194 184 182 181 176 170 167 158 143
228 230 246 259 329 308 274 257 233 184 248 253 199 214 148 172 176 184 188 187 190 184 182 181 179 182 179 183 187 181 187 188 187 191 190 183 181 190 197 220 203 199 197 188 179 171 162 164 160
222 251 256 275 271 285 286 281 250 242 221 256 262 275 167 176 194 204 206 199 194 191 186 186 182 184 181 185 189 185 192 192 195 197 203 183 194 203 191 223 212 206 203 190 191 172 174 203 194
236 253 265 279 256 253 251 261 260 252 257 270 277 284 195 189 203 205 212 207 193 191 189 188 188 187 186 188 193 189 191 196 200 202 206 195 200 209 202 210 205 205 216 196 194 203 223 189 222
231 254 258 248 249 244 245 245 257 245 31 337 303 264 234 202 213 202 208 203 195 191 191 191 190 190 190 192 194 196 195 199 204 204 213 202 209 211 206 207 208 208 207 199 207 211 196 199 216
202 236 259 233 228 223 239 241 235 105 346 308 291 237 209 224 199 198 196 192 198 197 196 195 196 194 190 194 197 199 201 203 204 208 213 209 213 214 208 208 208 214 213 214 208 218 204 209 218
260 253 238 239 228 232 236 247 219 15 355 31 331 101 169 122 178 190 183 197 199 200 200 199 199 201 197 201 198 201 205 207 209 211 209 213 212 213 206 213 218 215 218 217 212 208 206 215 216
240 234 251 197 171 227 205 183 63 41 73 101 50 121 124 105 104 132 176 203 204 204 203 204 204 207 206 203 203 205 208 211 213 214 214 217 215 205 219 213 221 220 219 219 215 210 216 216 216
196 243 216 145 223 142 212 145 81 71 83 85 89 89 103 92 61 70 183 207 210 207 209 207 207 206 210 206 209 208 210 212 215 215 217 220 217 214 212 215 220 219 221 221 218 218 219 218 217
176 221 179 272 147 212 202 131 106 100 110 95 92 100 65 56 29 354 351 164 214 214 218 218 211 207 209 209 207 215 215 217 215 217 217 220 221 218 224 215 217 224 222 223 222 222 222 222 216
10 304 318 113 91 274 324 78 110 125 119 102 94 82 81 73 56 22 326 308 261 214 221 220 217 214 205 212 210 211 216 219 220 220 221 219 221 221 222 222 221 226 223 227 226 217 217 216 212
289 277 270 106 216 268 165 158 151 138 100 97 104 92 84 73 58 43 18 332 224 223 222 228 224 219 213 212 213 216 214 217 220 223 225 222 221 222 222 223 220 229 230 232 222 215 215 218 217
278 288 290 302 178 237 272 184 164 143 127 112 103 100 84 70 56 44 30 27 83 251 290 232 233 229 222 213 219 217 217 217 218 218 220 223 222 224 221 229 225 229 235 229 231 225 217 220 221
305 321 327 285 274 262 212 257 164 154 140 125 114 94 88 69 54 45 37 39 83 144 279 203 236 239 237 228 222 220 216 213 216 219 220 212 214 216 223 228 233 225 233 225 241 236 229 223 224
286 343 286 275 265 265 247 237 177 158 160 135 113 98 89 74 53 41 39 37 67 74 198 250 260 253 240 234 237 241 219 214 215 216 227 236 240 240 241 232 230 233 235 235 230 240 239 231 225
303 274 256 245 246 244 240 249 199 180 166 133 122 97 76 73 63 47 45 40 47 60 182 221 262 274 264 262 257 262 266 255 245 247 237 235 248 245 252 238 234 230 232 232 227 231 234 237 235
246 261 260 224 217 234 168 183 73 107 100 116 126 102 71 46 61 53 48 53 45 40 41 41 19 275 274 274 275 271 261 258 259 249 253 252 244 244 240 240 238 238 234 235 236 232 230 236 234
293 306 289 305 296 45 144 231 114 116 122 133 128 96 61 41 53 70 67 57 60 55 43 33 26 16 13 352 321 316 302 271 264 260 263 253 263 253 256 256 253 250 251 246 243 238 234 232 228
195 248 357 301 277 268 284 95 137 146 152 159 139 115 60 56 55 80 90 90 52 35 23 10 1 354 355 358 351 321 301 285 270 262 258 258 252 249 246 251 259 259 250 245 250 246 239 229 221
257 342 250 218 263 269 261 259 139 160 171 172 197 142 87 66 71 81 76 107 43 8 357 344 341 340 344 345 344 341 334 319 304 291 272 262 268 264 265 262 252 246 252 250 247 236 232 224 217
189 225 227 292 296 297 290 306 84 147 166 150 171 157 136 88 44 46 45 23 19 8 354 328 325 312 318 323 324 322 315 312 310 306 292 282 272 266 260 259 258 264 255 257 248 235 229 222 222
276 279 288 260 262 236 273 285 89 117 146 168 201 183 201 273 284 28 33 357 339 353 343 336 339 317 305 298 300 300 296 294 298 290 279 281 275 261 256 250 251 250 245 240 233 223 211 197 181